User: anonymous   Login
Location: ????
(55.2778°N, 39.2433°E)
Time: 05:40:16
(UTC+00:00)
Language:

Lacrosse 4 Rocket - Orbit

View from above orbital plane
View from above orbital plane
View from above satellite
View from above satellite

Ground track
Ground track

The orbit data is extracted from the following two-line orbital elements,

1 26474U 00047B   24173.92873615  .00003183  00000-0  24516-3 0  9998
2 26474  67.9928 351.1814 0046328  16.6620 343.6035 15.02195855298670
Epoch (UTC): 21 June 2024 22:17:22
Eccentricity: 0.0046328
inclination: 67.9928°
perigee height: 528 km
apogee height: 592 km
right ascension of ascending node: 351.1814°
argument of perigee: 16.6620°
revolutions per day: 15.02195855
mean anomaly at epoch: 343.6035°
orbit number at epoch: 29867

The dashed part of the orbit path shows where the satellite is in the earth's shadow,  

DLR